Location: Arena
(42.5007°N, 9.4650°E)
Time: 21:48:00
(UTC+00:00)

Cosmos 2082 Rocket - Pass Details

Date: 09 April 2020
Orbit: 832 x 855 km, 71.0° (Epoch: 05 June)

Event Time Altitude Azimuth Distance (km) Brightness Sun altitude
Exits shadow 22:15:00 32° 343° (NNW) 1,404 3.7 -37.1°
Drops below altitude 10° 22:18:32 10° 12° (NNE) 2,468 5.2 -37.4°
Sets 22:21:08 0° 19° (NNE) 3,411 6.0 -37.5°
